[[{"header":{"parameterUnit":"m.s-1","parameterCategory":1,"la1":30.2991,"la2":30.254,"lo1":-89.0895,"lo2":-89.0444,"dy":0.0017,"dx":0.0017,"nx":28,"ny":28,"refTime":"2024-08-28T03:00:00:Z","depth":0,"parameterNumber":2,"parameterNumberName":"U-component_of_WINDS"},"data":[0,0,0,0,0,0,0,0,0,0,0,0,0,0,0,0,0,0,0,0,0,0,0,0,0,0,0,0,0,0,0,0,0,0,0,0,0,0,0,0,0,0,0,0,0,0,0,0,0,0,0,0,0,0,0,0,0,0,-1.1379,-1.1379,0,-1.1383,-1.1383,-1.1383,-1.1363,-1.1362,-1.1362,-1.1361,-1.1366,-1.1367,-1.1367,0,0,0,0,0,0,0,0,0,0,0,0,0,-1.1357,-1.1357,-1.1379,-1.1379,-1.1379,-1.1383,-1.1383,-1.1383,-1.1363,-1.1362,-1.1361,-1.1361,-1.1366,-1.1367,-1.1367,0,0,0,0,0,0,0,0,0,0,0,0,0,-1.1364,-1.1357,-1.1379,-1.137,-1.1369,-1.1383,-1.1383,-1.1383,-1.1363,-1.1362,-1.1361,-1.136,-1.1366,-1.1367,-1.1368,-1.1391,0,0,-1.1371,-1.1371,0,0,0,0,0,0,0,0,-1.1364,-1.1365,-1.1371,-1.137,-1.1369,-1.1371,-1.1377,-1.1386,-1.1363,-1.1365,-1.1361,-1.136,-1.1369,-1.1369,-1.1372,-1.1392,-1.1392,-1.1371,-1.1371,-1.1372,-1.1372,0,0,0,0,0,0,0,-1.1363,-1.1365,-1.1381,-1.1371,-1.137,-1.1366,-1.1366,-1.1378,-1.1372,-1.1365,-1.1363,-1.1364,-1.1368,-1.1371,-1.1372,-1.1392,-1.1371,-1.1372,-1.1372,-1.1373,-1.1433,-1.1434,0,0,0,0,0,0,-1.1364,-1.1364,-1.138,-1.1381,-1.1364,-1.1367,-1.1367,-1.1372,-1.1372,-1.1371,-1.1365,-1.1363,-1.137,-1.1371,-1.1372,-1.14,-1.1372,-1.1373,-1.1373,-1.1432,-1.1433,-1.1434,0,0,0,0,0,0,-1.1363,-1.1365,-1.138,-1.1372,-1.1374,-1.1368,-1.1374,-1.1372,-1.1375,-1.1372,-1.137,-1.1369,-1.1369,-1.1371,-1.1387,-1.14,-1.1373,-1.1374,-1.1431,-1.1432,-1.1433,-1.1457,0,0,0,0,0,0,-1.1363,-1.1365,-1.1374,-1.1372,-1.1374,-1.1394,-1.1374,-1.1373,-1.1377,-1.1375,-1.1375,-1.1374,-1.1369,-1.1386,-1.1388,-1.1401,-1.1375,-1.1429,-1.1431,-1.1433,-1.1455,-1.1459,-1.1463,0,0,0,0,0,-1.1362,-1.138,-1.1374,-1.1376,-1.1384,-1.1395,-1.1396,-1.1389,-1.1378,-1.1387,-1.1385,-1.1374,-1.1399,-1.1387,-1.139,-1.1404,-1.1428,-1.1431,-1.1433,-1.1453,-1.1458,-1.1463,0,0,0,0,0,0,-1.1383,-1.138,-1.1373,-1.1391,-1.1394,-1.1392,-1.1402,-1.1394,-1.14,-1.1398,-1.1389,-1.1389,-1.1407,-1.1407,-1.1395,-1.1428,-1.1412,-1.1415,-1.1427,-1.1431,-1.1435,-1.1434,-1.1376,0,0,0,0,0,-1.139,-1.1398,-1.1395,-1.1412,-1.1413,-1.1408,-1.1412,-1.1406,-1.1409,-1.141,-1.1409,-1.1412,-1.142,-1.1426,-1.1433,-1.1455,-1.1456,-1.1466,-1.147,-1.1473,-1.1476,-1.1489,-1.1493,-1.1441,-1.1441,-1.1441,0,0,-1.1404,-1.1403,-1.1409,-1.1416,-1.1417,-1.1427,-1.1409,-1.1419,-1.1427,-1.1411,-1.1426,-1.1426,-1.1429,-1.1449,-1.1457,-1.1449,-1.1491,-1.1476,-1.1479,-1.1479,-1.1491,-1.1496,-1.1501,-1.1443,-1.1442,-1.1442,0,0,-1.1434,-1.1434,-1.1448,-1.145,-1.1452,-1.1449,-1.1452,-1.1452,-1.1451,-1.1466,-1.1455,-1.1464,-1.1479,-1.1482,-1.1485,-1.1519,-1.151,-1.1521,-1.1541,-1.1554,-1.1558,-1.1561,-1.1574,-1.1578,-1.1524,-1.1524,-1.1524,0,-1.1451,-1.1465,-1.1457,-1.1468,-1.1472,-1.1459,-1.1474,-1.1476,-1.1481,-1.1484,-1.1475,-1.1494,-1.1495,-1.1515,-1.1524,-1.1527,-1.1531,-1.1521,-1.1558,-1.1561,-1.1565,-1.1576,-1.1581,-1.1525,-1.1525,-1.1525,-1.1525,0,-1.1486,-1.1496,-1.1507,-1.1512,-1.1517,-1.153,-1.1525,-1.1531,-1.1526,-1.1524,-1.154,-1.1541,-1.1549,-1.1554,-1.1548,-1.1574,-1.1569,-1.1559,-1.1543,-1.1571,-1.1582,-1.1586,-1.1527,-1.1527,-1.1527,-1.1526,0,0,-1.1529,-1.153,-1.1534,-1.1536,-1.1538,-1.1546,-1.156,-1.1567,-1.1573,-1.1577,-1.1589,-1.1602,-1.1593,-1.1597,-1.1592,-1.1603,-1.1631,-1.1592,-1.1592,-1.1599,-1.166,-1.1667,-1.1672,-1.1625,-1.1626,-1.1626,-1.166,0,-1.1559,-1.158,-1.1574,-1.1596,-1.1606,-1.1594,-1.1606,-1.1609,-1.1608,-1.1616,-1.1615,-1.1625,-1.1613,-1.1615,-1.1626,-1.1625,-1.1642,-1.1623,-1.1636,-1.1637,-1.1635,-1.1678,-1.1685,-1.1716,-1.1664,-1.1665,-1.1665,0,-1.1596,-1.1602,-1.1625,-1.1626,-1.163,-1.164,-1.1648,-1.1656,-1.166,-1.1658,-1.1663,-1.1656,-1.1671,-1.1655,-1.1675,-1.1662,-1.1667,-1.1668,-1.1669,-1.167,-1.1652,-1.168,-1.1726,-1.1731,-1.1672,-1.1671,-1.1671,0,-1.1625,-1.1638,-1.1654,-1.1657,-1.1659,-1.1667,-1.1668,-1.1671,-1.1676,-1.1683,-1.1687,-1.1695,-1.17,-1.1707,-1.1703,-1.1692,-1.1724,-1.1708,-1.1724,-1.1724,-1.173,-1.173,-1.1778,-1.1734,-1.1734,-1.1734,-1.1734,0,-1.1659,-1.1674,-1.1667,-1.1677,-1.1694,-1.1687,-1.1704,-1.1704,-1.1707,-1.1717,-1.1708,-1.1718,-1.1713,-1.1723,-1.172,-1.1738,-1.174,-1.1739,-1.1739,-1.174,-1.174,-1.1743,-1.1741,-1.1736,-1.1735,-1.1735,-1.1735,0,-1.1694,-1.169,-1.1707,-1.1707,-1.1708,-1.172,-1.1722,-1.1731,-1.173,-1.1743,-1.1746,-1.1744,-1.1755,-1.1752,-1.1765,-1.1763,-1.1785,-1.1782,-1.1784,-1.1783,-1.1799,-1.1798,-1.1851,-1.1858,-1.1809,-1.181,-1.181,0,-1.1715,-1.1726,-1.1729,-1.1735,-1.1737,-1.1747,-1.1752,-1.1747,-1.1753,-1.1759,-1.1768,-1.1779,-1.1787,-1.1806,-1.1806,-1.1816,-1.1813,-1.1831,-1.1814,-1.1816,-1.1813,-1.1813,-1.1814,-1.1834,-1.1834,-1.1835,-1.1835,0,-1.1755,-1.1752,-1.176,-1.1768,-1.1775,-1.1781,-1.1786,-1.1792,-1.1787,-1.1795,-1.1806,-1.1813,-1.1826,-1.1837,-1.1846,-1.1848,-1.1842,-1.1841,-1.1845,-1.1846,-1.1847,-1.1847,-1.1793,-1.1839,-1.1839,-1.1839,-1.1838,-1.1838,-1.1784,-1.1793,-1.1796,-1.1806,-1.181,-1.1815,-1.1824,-1.1824,-1.1833,-1.1843,-1.184,-1.1853,-1.1858,-1.187,-1.1874,-1.1885,-1.1878,-1.1884,-1.1886,-1.1887,-1.1889,-1.1846,-1.1886,-1.1886,-1.1886,-1.1886,-1.1886,0,-1.1823,-1.1824,-1.1833,-1.1841,-1.1849,-1.1841,-1.1847,-1.1854,-1.1866,-1.1871,-1.1879,-1.1893,-1.1904,-1.1906,-1.1916,-1.1925,-1.1922,-1.1928,-1.1927,-1.1928,-1.1894,-1.189,-1.193,-1.193,-1.193,-1.193,-1.193,-1.193,-1.1844,-1.186,-1.1858,-1.1877,-1.1878,-1.1891,-1.1895,-1.19,-1.1904,-1.192,-1.1929,-1.193,-1.1934,-1.1945,-1.1955,-1.1956,-1.196,-1.1967,-1.1966,-1.1935,-1.193,-1.1926,-1.1922,-1.1968,-1.1968,-1.1999,-1.1999,-1.2]},{"header":{"parameterUnit":"m.s-1","parameterCategory":1,"la1":30.2991,"la2":30.254,"lo1":-89.0895,"lo2":-89.0444,"dy":0.0017,"dx":0.0017,"nx":28,"ny":28,"refTime":"2024-08-28T03:00:00:Z","depth":0,"parameterNumber":3,"parameterNumberName":"V-component_of_WINDS"},"data":[0,0,0,0,0,0,0,0,0,0,0,0,0,0,0,0,0,0,0,0,0,0,0,0,0,0,0,0,0,0,0,0,0,0,0,0,0,0,0,0,0,0,0,0,0,0,0,0,0,0,0,0,0,0,0,0,0,0,2.2493,2.2494,0,2.2556,2.2557,2.2557,2.2615,2.2615,2.2616,2.2617,2.2676,2.2677,2.2678,0,0,0,0,0,0,0,0,0,0,0,0,0,2.2419,2.242,2.2493,2.2494,2.2495,2.2556,2.2557,2.2557,2.2615,2.2615,2.2616,2.2617,2.2676,2.2677,2.2678,0,0,0,0,0,0,0,0,0,0,0,0,0,2.2463,2.2421,2.2493,2.2531,2.2535,2.2556,2.2557,2.2558,2.2614,2.2616,2.2617,2.2618,2.2675,2.2677,2.2678,2.2665,0,0,2.2682,2.2683,0,0,0,0,0,0,0,0,2.2461,2.2466,2.2525,2.2528,2.2533,2.2579,2.2552,2.2594,2.2614,2.2584,2.2617,2.2618,2.2643,2.2647,2.2656,2.2668,2.267,2.2682,2.2683,2.2684,2.2684,0,0,0,0,0,0,0,2.2458,2.2464,2.2518,2.2525,2.253,2.2543,2.2551,2.256,2.2606,2.2587,2.2591,2.2598,2.2645,2.2654,2.2658,2.2671,2.2682,2.2684,2.2684,2.2685,2.2676,2.2675,0,0,0,0,0,0,2.2449,2.2461,2.2516,2.252,2.2499,2.2544,2.2552,2.2563,2.2606,2.2614,2.2597,2.26,2.2652,2.2656,2.266,2.2648,2.2684,2.2685,2.2686,2.2677,2.2676,2.2674,0,0,0,0,0,0,2.2448,2.2454,2.2514,2.2492,2.25,2.2544,2.2555,2.2563,2.2573,2.2614,2.2622,2.2599,2.2653,2.2658,2.2664,2.2651,2.2686,2.2687,2.2678,2.2676,2.2675,2.2623,0,0,0,0,0,0,2.2445,2.2453,2.2449,2.2491,2.2501,2.2517,2.2555,2.2564,2.2576,2.2581,2.2618,2.2625,2.2654,2.2661,2.2665,2.2653,2.2688,2.2679,2.2677,2.2675,2.2626,2.262,2.2615,0,0,0,0,0,2.2442,2.2431,2.2449,2.2455,2.2498,2.2517,2.2522,2.2557,2.2575,2.2571,2.2597,2.2624,2.2652,2.2662,2.2666,2.2654,2.268,2.2678,2.2676,2.2629,2.2621,2.2615,0,0,0,0,0,0,2.2385,2.2437,2.2458,2.246,2.2483,2.2526,2.2523,2.2548,2.2566,2.2569,2.2611,2.2618,2.2619,2.2637,2.2648,2.2644,2.267,2.2668,2.2632,2.2625,2.262,2.2615,2.2689,0,0,0,0,0,2.2373,2.2385,2.243,2.2427,2.2438,2.2478,2.2488,2.2513,2.2538,2.2548,2.2575,2.2597,2.2611,2.2619,2.2634,2.2629,2.2638,2.2623,2.2617,2.2613,2.261,2.2609,2.2603,2.2667,2.2667,2.2667,0,0,2.2347,2.2377,2.2382,2.2416,2.2438,2.2448,2.2486,2.2495,2.2503,2.2549,2.2557,2.2577,2.2604,2.2605,2.2606,2.262,2.2595,2.2609,2.2605,2.2606,2.2606,2.26,2.2594,2.2665,2.2665,2.2665,0,0,2.2306,2.2331,2.2332,2.2352,2.2385,2.2412,2.2412,2.2451,2.2467,2.2475,2.251,2.2519,2.2542,2.2561,2.2573,2.2539,2.2564,2.2543,2.2512,2.251,2.2505,2.2501,2.2489,2.2484,2.2541,2.2541,2.254,0,2.227,2.2289,2.2328,2.2336,2.235,2.2393,2.2394,2.2411,2.2446,2.2454,2.2469,2.25,2.2521,2.2526,2.2518,2.2527,2.2528,2.2539,2.2503,2.2499,2.2496,2.2484,2.248,2.2538,2.2538,2.2538,2.2539,0,2.2243,2.2255,2.2251,2.2286,2.2299,2.2303,2.2342,2.235,2.2374,2.2399,2.2406,2.2434,2.2456,2.2459,2.2481,2.2467,2.2474,2.2496,2.2522,2.2486,2.2476,2.2472,2.2534,2.2535,2.2536,2.2536,0,0,2.2167,2.2224,2.2222,2.2238,2.2277,2.2287,2.2292,2.2315,2.2321,2.2344,2.2349,2.2367,2.2388,2.2402,2.2427,2.2425,2.2396,2.2447,2.2448,2.2436,2.2382,2.2365,2.236,2.2413,2.2412,2.2412,2.2379,0,2.2132,2.2147,2.2182,2.2185,2.2196,2.2238,2.2243,2.2266,2.2289,2.2301,2.2326,2.2339,2.2365,2.2374,2.2374,2.24,2.2386,2.2403,2.2417,2.2417,2.2409,2.2355,2.2337,2.2305,2.2376,2.2375,2.2374,0,2.2094,2.2115,2.212,2.2159,2.2165,2.2169,2.2192,2.2204,2.2231,2.2248,2.2264,2.2292,2.2299,2.2323,2.2333,2.2343,2.2351,2.2365,2.2364,2.2367,2.2393,2.2355,2.2296,2.229,2.2369,2.2369,2.237,0,2.2038,2.2068,2.2075,2.2087,2.2133,2.2134,2.2153,2.2182,2.2193,2.2213,2.2221,2.2241,2.2251,2.2266,2.2298,2.2313,2.2303,2.2331,2.2317,2.2316,2.2312,2.2312,2.2253,2.2318,2.2318,2.2318,2.2318,0,2.1995,2.1996,2.205,2.2054,2.2056,2.2097,2.2097,2.2119,2.2144,2.2152,2.2189,2.2195,2.2238,2.2249,2.2274,2.2277,2.2282,2.2295,2.2301,2.2291,2.229,2.2297,2.23,2.2317,2.2317,2.2317,2.2317,0,2.1933,2.197,2.198,2.2022,2.2033,2.2033,2.2069,2.2073,2.2099,2.2109,2.2113,2.2153,2.2167,2.2201,2.2224,2.2241,2.2238,2.225,2.2229,2.2234,2.2217,2.2218,2.2161,2.2155,2.2223,2.2222,2.2222,0,2.1904,2.1906,2.1949,2.1958,2.1976,2.199,2.2002,2.2041,2.2052,2.2084,2.2084,2.2102,2.2119,2.214,2.217,2.2188,2.22,2.2179,2.2203,2.2193,2.22,2.2199,2.2199,2.2173,2.2172,2.2172,2.2171,0,2.1847,2.1866,2.1883,2.1906,2.192,2.194,2.1962,2.1967,2.2011,2.2021,2.2038,2.2051,2.2075,2.2092,2.2115,2.2132,2.2158,2.2163,2.2161,2.2151,2.2138,2.2145,2.2214,2.2164,2.2165,2.2166,2.2166,2.2166,2.1801,2.1805,2.1836,2.1854,2.1875,2.1894,2.1901,2.1928,2.1943,2.1967,2.1989,2.2003,2.203,2.2064,2.2079,2.209,2.2103,2.21,2.2099,2.2097,2.2093,2.2137,2.2094,2.2094,2.2095,2.2095,2.2095,0,2.1746,2.1769,2.1785,2.1815,2.1829,2.1855,2.188,2.1889,2.1902,2.1925,2.1941,2.196,2.1976,2.2008,2.2027,2.2029,2.2042,2.2033,2.2033,2.2036,2.208,2.208,2.2023,2.2023,2.2023,2.2023,2.2023,2.2023,2.172,2.1727,2.1749,2.1767,2.1789,2.1805,2.1817,2.1835,2.1854,2.1874,2.1889,2.191,2.1936,2.1957,2.1973,2.1982,2.1987,2.1974,2.1986,2.2027,2.2033,2.204,2.204,2.1975,2.1975,2.1942,2.1942,2.1941]}]]